| time (UTC) | temp F | wind direction | speed MPH | gust MPH | rain 1hr in | rain 24hr in | rain mn in | humidity % | barometer mb |
| 20260509223056 | 78 | 296 | 1.0 | 5.0 | 0.00 | 0.00 | 0.00 | 67 | 1008.4 |
| 20260509221551 | 80 | 290 | 4.0 | 11.0 | 0.00 | 0.00 | 0.00 | 69 | 1008.7 |
| 20260509220056 | 84 | 290 | 3.0 | 9.0 | 0.00 | 0.00 | 0.00 | 72 | 1008.0 |
| 20260509214610 | 84 | 38 | 1.0 | 4.0 | 0.00 | 0.00 | 0.00 | 71 | 1007.9 |
| 20260509213049 | 86 | 245 | 5.0 | 8.0 | 0.00 | 0.00 | 0.00 | 69 | 1008.2 |
| 20260509211550 | 88 | 252 | 1.0 | 2.0 | 0.00 | 0.00 | 0.00 | 64 | 1008.1 |
| 20260509210100 | 88 | 252 | 1.0 | 3.0 | 0.00 | 0.00 | 0.00 | 63 | 1008.3 |
| 20260509204557 | 90 | 259 | 3.0 | 8.0 | 0.00 | 0.00 | 0.00 | 58 | 1008.4 |
| 20260509203102 | 90 | 238 | 2.0 | 5.0 | 0.00 | 0.00 | 0.00 | 62 | 1008.7 |
| 20260509201552 | 89 | 213 | 1.0 | 6.0 | 0.00 | 0.00 | 0.00 | 67 | 1008.8 |
| 20260509200051 | 87 | 322 | 1.0 | 5.0 | 0.00 | 0.00 | 0.00 | 71 | 1008.7 |
| 20260509194553 | 88 | 0 | 2.0 | 10.0 | 0.00 | 0.00 | 0.00 | 66 | 1009.0 |
| 20260509193058 | 87 | 250 | 1.0 | 8.0 | 0.00 | 0.00 | 0.00 | 70 | 1009.0 |
| 20260509191601 | 88 | 273 | 5.0 | 8.0 | 0.00 | 0.00 | 0.00 | 69 | 1009.2 |
| 20260509190055 | 87 | 257 | 2.0 | 7.0 | 0.00 | 0.00 | 0.00 | 72 | 1009.5 |
| 20260509184559 | 86 | 224 | 1.0 | 7.0 | 0.00 | 0.00 | 0.00 | 71 | 1009.7 |
| 20260509183058 | 86 | 192 | 3.0 | 5.0 | 0.00 | 0.00 | 0.00 | 70 | 1009.8 |
| 20260509181558 | 87 | 186 | 3.0 | 9.0 | 0.00 | 0.00 | 0.00 | 70 | 1010.0 |
| 20260509180050 | 86 | 178 | 2.0 | 8.0 | 0.00 | 0.00 | 0.00 | 74 | 1010.3 |
| 20260509174619 | 84 | 202 | 4.0 | 10.0 | 0.00 | 0.00 | 0.00 | 77 | 1010.4 |
| 20260509173054 | 84 | 196 | 3.0 | 7.0 | 0.00 | 0.00 | 0.00 | 76 | 1010.6 |
| 20260509171554 | 83 | 0 | 0.0 | 4.0 | 0.00 | 0.00 | 0.00 | 79 | 1010.7 |
| 20260509170106 | 82 | 188 | 3.0 | 6.0 | 0.00 | 0.00 | 0.00 | 77 | 1010.9 |
| 20260509164556 | 82 | 170 | 1.0 | 7.0 | 0.00 | 0.00 | 0.00 | 78 | 1011.1 |
| 20260509163057 | 82 | 0 | 0.0 | 4.0 | 0.00 | 0.00 | 0.00 | 80 | 1011.0 |
| 20260509161602 | 81 | 0 | 0.0 | 3.0 | 0.00 | 0.00 | 0.00 | 82 | 1010.7 |
| 20260509160058 | 82 | 275 | 0.0 | 2.0 | 0.00 | 0.00 | 0.00 | 82 | 1010.9 |
| 20260509154601 | 80 | 276 | 0.0 | 3.0 | 0.00 | 0.00 | 0.00 | 85 | 1011.0 |
| 20260509153113 | 79 | 267 | 1.0 | 7.0 | 0.00 | 0.00 | 0.00 | 88 | 1010.9 |
| 20260509151559 | 78 | 0 | 2.0 | 6.0 | 0.00 | 0.00 | 0.00 | 90 | 1010.9 |
| 20260509150103 | 76 | 0 | 1.0 | 4.0 | 0.00 | 0.00 | 0.00 | 96 | 1010.9 |
| 20260509144550 | 75 | 241 | 2.0 | 3.0 | 0.00 | 0.00 | 0.00 | 97 | 1010.4 |
| 20260509143052 | 76 | 182 | 0.0 | 2.0 | 0.00 | 0.00 | 0.00 | 98 | 1010.2 |
| 20260509141555 | 75 | 183 | 0.0 | 3.0 | 0.00 | 0.00 | 0.00 | 98 | 1010.1 |
| 20260509140052 | 74 | 182 | 1.0 | 3.0 | 0.00 | 0.00 | 0.00 | 98 | 1010.0 |
| 20260509134549 | 74 | 0 | 0.0 | 3.0 | 0.00 | 0.00 | 0.00 | 98 | 1010.3 |
| 20260509133051 | 74 | 182 | 1.0 | 4.0 | 0.00 | 0.00 | 0.00 | 98 | 1010.8 |
| 20260509131552 | 73 | 186 | 0.0 | 4.0 | 0.00 | 0.00 | 0.00 | 98 | 1010.6 |
| 20260509130104 | 73 | 159 | 2.0 | 8.0 | 0.00 | 0.00 | 0.00 | 98 | 1010.3 |
| 20260509124555 | 0 | 0.0 | 0.0 | 0.00 | 0.00 | 0.00 | 1010.6 | ||
| 20260509123054 | 0 | 0.0 | 0.0 | 0.00 | 0.00 | 0.00 | 1011.1 | ||
| 20260509121616 | 0 | 0.0 | 0.0 | 0.00 | 0.00 | 0.00 | 1010.9 | ||
| 20260509120055 | 0 | 0.0 | 0.0 | 0.00 | 0.00 | 0.00 | 1010.9 | ||
| 20260509114559 | 0 | 0.0 | 0.0 | 0.00 | 0.00 | 0.00 | 1010.5 | ||
| 20260509113058 | 0 | 0.0 | 0.0 | 0.00 | 0.00 | 0.00 | 1010.7 | ||
| 20260509111553 | 0 | 0.0 | 0.0 | 0.00 | 0.00 | 0.00 | 1010.5 | ||
| 20260509110052 | 0 | 0.0 | 0.0 | 0.00 | 0.00 | 0.00 | 1010.3 | ||
| 20260509104556 | 0 | 0.0 | 0.0 | 0.00 | 0.00 | 0.00 | 1010.9 | ||
| 20260509103100 | 0 | 0.0 | 0.0 | 0.00 | 0.00 | 0.00 | 1010.4 | ||
| 20260509101603 | 0 | 0.0 | 0.0 | 0.00 | 0.00 | 0.00 | 1009.6 | ||
| 20260509100054 | 0 | 0.0 | 0.0 | 0.00 | 0.00 | 0.00 | 1009.7 | ||
| 20260509094603 | 0 | 0.0 | 0.0 | 0.00 | 0.00 | 0.00 | 1010.0 | ||
| 20260509093052 | 0 | 0.0 | 0.0 | 0.00 | 0.00 | 0.00 | 1010.0 | ||
| 20260509091605 | 0 | 0.0 | 0.0 | 0.00 | 0.00 | 0.00 | 1009.9 | ||
| 20260509090101 | 0 | 0.0 | 0.0 | 0.00 | 0.00 | 0.00 | 1009.9 | ||
| 20260509084554 | 0 | 0.0 | 0.0 | 0.00 | 0.00 | 0.00 | 1010.1 | ||
| 20260509083101 | 0 | 0.0 | 0.0 | 0.00 | 0.00 | 0.00 | 1010.1 | ||
| 20260509081552 | 0 | 0.0 | 0.0 | 0.00 | 0.00 | 0.00 | 1010.2 | ||
| 20260509080054 | 0 | 0.0 | 0.0 | 0.00 | 0.00 | 0.00 | 1010.3 | ||
| 20260509074554 | 0 | 0.0 | 0.0 | 0.00 | 0.00 | 0.00 | 1010.0 | ||
| 20260509073054 | 0 | 0.0 | 0.0 | 0.00 | 0.00 | 0.00 | 1009.9 | ||
| 20260509071553 | 0 | 0.0 | 0.0 | 0.00 | 0.00 | 0.00 | 1010.1 | ||
| 20260509070054 | 0 | 0.0 | 0.0 | 0.00 | 0.00 | 0.00 | 1010.1 | ||
| 20260509064553 | 0 | 0.0 | 0.0 | 0.00 | 0.00 | 0.00 | 1009.8 | ||
| 20260509063052 | 0 | 0.0 | 0.0 | 0.00 | 0.00 | 0.00 | 1009.7 | ||
| 20260509061551 | 0 | 0.0 | 0.0 | 0.00 | 0.00 | 0.00 | 1010.0 | ||
| 20260509060104 | 0 | 0.0 | 0.0 | 0.00 | 0.00 | 0.00 | 1010.3 | ||
| 20260509054551 | 0 | 0.0 | 0.0 | 0.00 | 0.00 | 0.00 | 1010.7 | ||
| 20260509053112 | 0 | 0.0 | 0.0 | 0.00 | 0.00 | 0.00 | 1010.5 | ||
| 20260509051554 | 0 | 0.0 | 0.0 | 0.00 | 0.00 | 0.00 | 1010.6 | ||
| 20260509050054 | 0 | 0.0 | 0.0 | 0.00 | 0.00 | 0.00 | 1010.6 | ||
| 20260509044631 | 0 | 2.0 | 0.0 | 0.00 | 0.00 | 0.00 | 1010.5 | ||
| 20260509043132 | 73 | 93 | 1.0 | 8.0 | 0.00 | 0.00 | 0.00 | 89 | 1010.4 |
| 20260509041551 | 73 | 100 | 1.0 | 7.0 | 0.00 | 0.00 | 0.00 | 89 | 1010.5 |
| 20260509034555 | 73 | 91 | 0.0 | 3.0 | 0.00 | 0.00 | 0.00 | 89 | 1010.3 |
| 20260509033058 | 73 | 90 | 1.0 | 4.0 | 0.00 | 0.00 | 0.00 | 89 | 1010.2 |
| 20260509031601 | 73 | 92 | 0.0 | 3.0 | 0.00 | 0.00 | 0.00 | 89 | 1010.0 |
| 20260509030112 | 73 | 90 | 2.0 | 7.0 | 0.00 | 0.00 | 0.00 | 88 | 1009.9 |
| 20260509024553 | 74 | 76 | 3.0 | 7.0 | 0.00 | 0.00 | 0.00 | 88 | 1009.7 |
| 20260509023058 | 74 | 89 | 3.0 | 8.0 | 0.00 | 0.00 | 0.00 | 88 | 1009.6 |
| 20260509021556 | 74 | 98 | 2.0 | 6.0 | 0.00 | 0.00 | 0.00 | 88 | 1009.5 |
| 20260509020105 | 74 | 81 | 2.0 | 7.0 | 0.00 | 0.00 | 0.00 | 88 | 1009.4 |
| 20260509014558 | 74 | 80 | 2.0 | 4.0 | 0.00 | 0.00 | 0.00 | 88 | 1009.4 |
| 20260509013100 | 74 | 78 | 2.0 | 7.0 | 0.00 | 0.00 | 0.00 | 87 | 1009.1 |
| 20260509011558 | 75 | 86 | 3.0 | 9.0 | 0.00 | 0.00 | 0.00 | 86 | 1009.2 |
| 20260509010056 | 75 | 98 | 2.0 | 7.0 | 0.00 | 0.00 | 0.00 | 86 | 1009.1 |
| 20260509004558 | 75 | 94 | 1.0 | 7.0 | 0.00 | 0.00 | 0.00 | 86 | 1009.0 |
| 20260509003056 | 76 | 0 | 1.0 | 3.0 | 0.00 | 0.00 | 0.00 | 85 | 1009.0 |
| 20260509001551 | 76 | 84 | 2.0 | 8.0 | 0.00 | 0.00 | 0.00 | 85 | 1008.9 |
| 20260509000054 | 76 | 96 | 1.0 | 6.0 | 0.00 | 0.00 | 0.00 | 84 | 1009.0 |
| 20260508234549 | 77 | 93 | 2.0 | 8.0 | 0.00 | 0.00 | 0.00 | 84 | 1009.1 |
| 20260508233050 | 77 | 74 | 3.0 | 8.0 | 0.00 | 0.00 | 0.00 | 82 | 1009.1 |
| 20260508231556 | 78 | 80 | 3.0 | 10.0 | 0.00 | 0.00 | 0.00 | 81 | 1009.0 |
| 20260508230053 | 79 | 103 | 3.0 | 8.0 | 0.00 | 0.00 | 0.00 | 80 | 1008.9 |
| 20260508224613 | 79 | 80 | 4.0 | 8.0 | 0.00 | 0.00 | 0.00 | 81 | 1008.9 |